| time (UTC) | temp C | wind direction | speed KPH | gust KPH | rain 1hr cm | rain 24hr cm | rain mn cm | humidity % | barometer mb |
| 20260504081524 | 2 | 246 | 19.3 | 48.3 | 0.03 | 2.18 | 0.13 | 96 | 985.8 |
| 20260504070105 | 2 | 238 | 22.5 | 38.6 | 0.00 | 2.13 | 0.08 | 97 | 982.5 |
| 20260504044537 | 4 | 227 | 17.7 | 32.2 | 0.03 | 2.11 | 0.05 | 99 | 978.0 |
| 20260504043025 | 4 | 226 | 14.5 | 33.8 | 0.00 | 2.08 | 0.03 | 99 | 977.4 |
| 20260504041521 | 4 | 219 | 14.5 | 30.6 | 0.00 | 2.08 | 0.03 | 99 | 976.9 |
| 20260504040022 | 3 | 234 | 16.1 | 27.4 | 0.03 | 2.08 | 0.03 | 99 | 976.4 |
| 20260504034514 | 3 | 233 | 8.0 | 19.3 | 0.03 | 2.08 | 0.03 | 99 | 975.7 |
| 20260504033010 | 3 | 263 | 8.0 | 20.9 | 0.05 | 2.08 | 0.03 | 99 | 974.9 |
| 20260504031507 | 3 | 255 | 4.8 | 14.5 | 0.08 | 2.08 | 0.03 | 99 | 974.4 |
| 20260504030002 | 3 | 302 | 3.2 | 9.7 | 0.05 | 2.06 | 2.06 | 99 | 973.8 |
| 20260504024505 | 3 | 346 | 3.2 | 8.0 | 0.08 | 2.06 | 2.06 | 99 | 973.5 |
| 20260504023100 | 3 | 58 | 4.8 | 17.7 | 0.05 | 2.03 | 2.03 | 99 | 973.8 |
| 20260504021556 | 3 | 95 | 8.0 | 24.1 | 0.05 | 2.01 | 2.01 | 99 | 974.3 |
| 20260504020051 | 3 | 62 | 14.5 | 27.4 | 0.05 | 2.01 | 2.01 | 99 | 975.1 |
| 20260504014600 | 3 | 53 | 9.7 | 24.1 | 0.03 | 1.98 | 1.98 | 99 | 976.1 |
| 20260504013050 | 4 | 59 | 12.9 | 29.0 | 0.03 | 1.98 | 1.98 | 99 | 977.1 |
| 20260504011543 | 4 | 59 | 9.7 | 30.6 | 0.00 | 1.96 | 1.96 | 99 | 977.9 |
| 20260504010038 | 5 | 91 | 11.3 | 30.6 | 0.03 | 1.96 | 1.96 | 100 | 978.6 |
| 20260504004535 | 5 | 76 | 6.4 | 19.3 | 0.08 | 1.96 | 1.96 | 100 | 979.6 |
| 20260504003030 | 5 | 78 | 12.9 | 29.0 | 0.13 | 1.96 | 1.96 | 100 | 980.2 |
| 20260504001526 | 3 | 92 | 20.9 | 40.2 | 0.13 | 1.93 | 1.93 | 100 | 980.7 |
| 20260504000023 | 3 | 41 | 17.7 | 32.2 | 0.18 | 1.93 | 1.93 | 99 | 981.2 |
| 20260503234530 | 3 | 71 | 24.1 | 46.7 | 0.18 | 1.88 | 1.88 | 99 | 982.4 |
| 20260503233016 | 3 | 63 | 22.5 | 56.3 | 0.15 | 1.83 | 1.83 | 99 | 983.3 |
| 20260503231514 | 3 | 36 | 29.0 | 48.3 | 0.23 | 1.80 | 1.80 | 99 | 984.1 |
| 20260503230010 | 3 | 55 | 27.4 | 46.7 | 0.33 | 1.75 | 1.75 | 99 | 985.0 |
| 20260503224512 | 3 | 59 | 25.7 | 54.7 | 0.36 | 1.70 | 1.70 | 99 | 986.0 |
| 20260503223006 | 3 | 48 | 20.9 | 46.7 | 0.38 | 1.65 | 1.65 | 99 | 987.0 |
| 20260503221502 | 3 | 51 | 30.6 | 49.9 | 0.41 | 1.55 | 1.55 | 99 | 987.8 |
| 20260503220104 | 2 | 49 | 30.6 | 56.3 | 0.36 | 1.42 | 1.42 | 99 | 988.5 |
| 20260503214556 | 2 | 57 | 30.6 | 53.1 | 0.41 | 1.35 | 1.35 | 99 | 989.5 |
| 20260503213101 | 2 | 64 | 33.8 | 56.3 | 0.58 | 1.27 | 1.27 | 99 | 990.8 |
| 20260503211548 | 2 | 59 | 29.0 | 48.3 | 0.56 | 1.14 | 1.14 | 99 | 991.9 |
| 20260503210047 | 2 | 69 | 17.7 | 49.9 | 0.53 | 1.07 | 1.07 | 99 | 993.2 |
| 20260503204542 | 2 | 53 | 20.9 | 41.8 | 0.48 | 0.91 | 0.91 | 99 | 994.0 |
| 20260503203040 | 2 | 78 | 27.4 | 41.8 | 0.36 | 0.69 | 0.69 | 99 | 993.9 |
| 20260503201535 | 2 | 80 | 25.7 | 41.8 | 0.33 | 0.58 | 0.58 | 99 | 994.7 |
| 20260503200031 | 2 | 65 | 22.5 | 43.5 | 0.33 | 0.53 | 0.53 | 98 | 995.6 |
| 20260503194527 | 2 | 71 | 14.5 | 29.0 | 0.30 | 0.41 | 0.41 | 98 | 996.7 |
| 20260503193029 | 2 | 65 | 24.1 | 43.5 | 0.30 | 0.33 | 0.33 | 98 | 996.8 |
| 20260503191522 | 3 | 59 | 19.3 | 37.0 | 0.25 | 0.25 | 0.25 | 97 | 997.8 |
| 20260503190021 | 3 | 53 | 20.9 | 35.4 | 0.18 | 0.18 | 0.18 | 97 | 998.8 |
| 20260503184518 | 3 | 84 | 19.3 | 37.0 | 0.08 | 0.08 | 0.08 | 97 | 999.1 |
| 20260503183017 | 3 | 44 | 17.7 | 33.8 | 0.00 | 0.00 | 0.00 | 96 | 999.9 |
| 20260503181512 | 3 | 50 | 12.9 | 29.0 | 0.00 | 0.00 | 0.00 | 96 | 1000.6 |
| 20260503180016 | 3 | 94 | 14.5 | 27.4 | 0.00 | 0.00 | 0.00 | 95 | 1001.6 |
| 20260503174506 | 3 | 115 | 11.3 | 30.6 | 0.00 | 0.00 | 0.00 | 95 | 1002.6 |
| 20260503173005 | 4 | 130 | 11.3 | 17.7 | 0.00 | 0.00 | 0.00 | 95 | 1003.5 |
| 20260503171501 | 3 | 75 | 8.0 | 22.5 | 0.00 | 0.00 | 0.00 | 96 | 1003.6 |